Big Bear Station Historical Data
Daily Summary for March 18, 2017 Units:  English    Metric   Both
« Previous Day
Next Day »
Daily Weekly Monthly Yearly Custom
  High: Low: Average:
Temperature: 65.5 °F 37.0 °F 48.9 °F
Dew Point: 38.2 °F 24.1 °F 31.2 °F
Humidity: 89 % 27 % 55 %
Wind Speed: 9.9 mph 0.0 mph 1.5 mph
Wind Gust: -999.0 mph - -
Wind:- - SW
Pressure: 30.31 in 30.27 in -
Precipitation: 0.00 in    
Historical Graphs
 
 
Tabular Data for March 18, 2017
Time Temperature Dew Point Pressure Wind Wind Speed Wind Gust Humidity Rainfall Rate (Hourly)
00:09 39.4 °F 36.1 °F 30.29 in Calm   -999.0 mph 88 % 0 in
00:24 39.2 °F 36.2 °F 30.29 in South 1.7 mph -999.0 mph 89 % 0 in
00:39 38.7 °F 35.7 °F 30.29 in South 2.2 mph -999.0 mph 89 % 0 in
00:54 38.7 °F 35.7 °F 30.29 in South 1.1 mph -999.0 mph 89 % 0 in
01:10 38.5 °F 35.5 °F 30.29 in Calm   -999.0 mph 89 % 0 in
01:25 38.5 °F 35.5 °F 30.29 in Calm   -999.0 mph 89 % 0 in
01:40 38.3 °F 35.1 °F 30.29 in South 2.2 mph -999.0 mph 88 % 0 in
01:55 38.8 °F 35.6 °F 30.29 in South 2.2 mph -999.0 mph 88 % 0 in
02:11 38.5 °F 35.3 °F 30.29 in Calm   -999.0 mph 88 % 0 in
02:26 38.3 °F 35.1 °F 30.28 in Calm   -999.0 mph 88 % 0 in
02:41 39.7 °F 35.6 °F 30.28 in Calm   -999.0 mph 85 % 0 in
02:56 39.9 °F 35.2 °F 30.27 in Calm   -999.0 mph 83 % 0 in
03:11 40.1 °F 34.4 °F 30.27 in Calm   -999.0 mph 80 % 0 in
03:27 42.6 °F 33.9 °F 30.27 in Calm   -999.0 mph 71 % 0 in
03:42 43.0 °F 32.8 °F 30.27 in Calm   -999.0 mph 67 % 0 in
03:57 43.0 °F 32.4 °F 30.27 in Calm   -999.0 mph 66 % 0 in
04:12 43.2 °F 30.2 °F 30.27 in Calm   -999.0 mph 60 % 0 in
04:27 42.3 °F 31.0 °F 30.27 in Calm   -999.0 mph 64 % 0 in
04:43 41.4 °F 30.5 °F 30.27 in Calm   -999.0 mph 65 % 0 in
04:58 40.6 °F 30.9 °F 30.27 in Calm   -999.0 mph 68 % 0 in
05:13 40.1 °F 31.5 °F 30.27 in Calm   -999.0 mph 71 % 0 in
05:28 39.4 °F 31.1 °F 30.27 in Calm   -999.0 mph 72 % 0 in
05:43 39.0 °F 30.7 °F 30.27 in Calm   -999.0 mph 72 % 0 in
05:59 38.7 °F 30.5 °F 30.27 in Calm   -999.0 mph 72 % 0 in
06:14 38.1 °F 31.5 °F 30.27 in Calm   -999.0 mph 77 % 0 in
06:29 37.9 °F 31.7 °F 30.28 in Calm   -999.0 mph 78 % 0 in
06:44 37.6 °F 30.7 °F 30.28 in Calm   -999.0 mph 76 % 0 in
07:00 37.4 °F 29.9 °F 30.28 in Calm   -999.0 mph 74 % 0 in
07:15 37.0 °F 31.4 °F 30.28 in Calm   -999.0 mph 80 % 0 in
07:30 37.2 °F 31.6 °F 30.28 in Calm   -999.0 mph 80 % 0 in
07:45 37.2 °F 32.5 °F 30.29 in Calm   -999.0 mph 83 % 0 in
08:00 38.3 °F 33.6 °F 30.29 in Calm   -999.0 mph 83 % 0 in
08:16 39.2 °F 34.5 °F 30.29 in Calm   -999.0 mph 83 % 0 in
08:31 41.2 °F 35.8 °F 30.29 in Calm   -999.0 mph 81 % 0 in
08:46 41.9 °F 35.9 °F 30.29 in Calm   -999.0 mph 79 % 0 in
09:02 42.8 °F 37.1 °F 30.29 in NW 1.7 mph -999.0 mph 80 % 0 in
09:17 43.5 °F 37.4 °F 30.29 in Calm   -999.0 mph 79 % 0 in
09:33 45.0 °F 38.2 °F 30.29 in WNW 1.7 mph -999.0 mph 77 % 0 in
09:48 48.6 °F 32.2 °F 30.30 in WNW 2.2 mph -999.0 mph 53 % 0 in
10:03 51.4 °F 29.6 °F 30.30 in NW 2.7 mph -999.0 mph 43 % 0 in
10:18 52.7 °F 29.6 °F 30.31 in NW 2.7 mph -999.0 mph 41 % 0 in
10:33 53.8 °F 28.8 °F 30.31 in WNW 1.7 mph -999.0 mph 38 % 0 in
10:49 56.1 °F 30.2 °F 30.31 in East 2.7 mph -999.0 mph 37 % 0 in
11:04 57.6 °F 30.8 °F 30.31 in WNW 5.3 mph -999.0 mph 36 % 0 in
11:19 58.8 °F 31.2 °F 30.31 in NW 5.8 mph -999.0 mph 35 % 0 in
11:34 58.8 °F 31.2 °F 30.31 in WNW 2.2 mph -999.0 mph 35 % 0 in
11:49 61.0 °F 32.4 °F 30.30 in NW 2.7 mph -999.0 mph 34 % 0 in
12:05 62.1 °F 32.6 °F 30.31 in NW 2.7 mph -999.0 mph 33 % 0 in
12:20 64.0 °F 32.8 °F 30.30 in SSE 2.7 mph -999.0 mph 31 % 0 in
12:35 64.4 °F 32.3 °F 30.30 in ENE 2.7 mph -999.0 mph 30 % 0 in
12:50 65.1 °F 33.7 °F 30.30 in NW 3.2 mph -999.0 mph 31 % 0 in
13:05 65.1 °F 36.0 °F 30.30 in WNW 5.8 mph -999.0 mph 34 % 0 in
13:21 64.2 °F 35.2 °F 30.30 in WNW 1.7 mph -999.0 mph 34 % 0 in
13:36 64.4 °F 33.1 °F 30.29 in SSE 1.7 mph -999.0 mph 31 % 0 in
13:51 65.5 °F 30.6 °F 30.29 in South 2.2 mph -999.0 mph 27 % 0 in
14:06 65.5 °F 31.5 °F 30.29 in SW 2.7 mph -999.0 mph 28 % 0 in
14:22 64.9 °F 31.9 °F 30.28 in SSE 1.7 mph -999.0 mph 29 % 0 in
14:37 63.5 °F 34.6 °F 30.28 in NW 3.7 mph -999.0 mph 34 % 0 in
14:53 62.6 °F 33.8 °F 30.28 in West 2.7 mph -999.0 mph 34 % 0 in
15:08 63.0 °F 34.2 °F 30.28 in SSW 2.2 mph -999.0 mph 34 % 0 in
15:23 62.1 °F 33.4 °F 30.28 in WNW 9.9 mph -999.0 mph 34 % 0 in
15:38 61.7 °F 31.5 °F 30.28 in South 2.2 mph -999.0 mph 32 % 0 in
15:54 61.9 °F 29.3 °F 30.27 in NW 4.2 mph -999.0 mph 29 % 0 in
16:10 61.5 °F 28.9 °F 30.27 in North 3.7 mph -999.0 mph 29 % 0 in
16:25 61.3 °F 28.8 °F 30.27 in SE 1.7 mph -999.0 mph 29 % 0 in
16:40 61.2 °F 29.5 °F 30.27 in South 2.2 mph -999.0 mph 30 % 0 in
16:55 59.4 °F 31.0 °F 30.27 in NW 2.7 mph -999.0 mph 34 % 0 in
17:11 58.1 °F 30.6 °F 30.28 in West 3.2 mph -999.0 mph 35 % 0 in
17:26 57.2 °F 31.8 °F 30.27 in North 1.1 mph -999.0 mph 38 % 0 in
17:41 56.7 °F 31.4 °F 30.27 in North 1.7 mph -999.0 mph 38 % 0 in
17:56 56.5 °F 31.8 °F 30.27 in NW 4.7 mph -999.0 mph 39 % 0 in
18:11 55.8 °F 30.6 °F 30.27 in NNE 3.7 mph -999.0 mph 38 % 0 in
18:27 54.7 °F 28.3 °F 30.27 in West 3.2 mph -999.0 mph 36 % 0 in
18:42 53.4 °F 29.7 °F 30.27 in ESE 1.7 mph -999.0 mph 40 % 0 in
18:57 52.2 °F 29.2 °F 30.28 in NNE 1.1 mph -999.0 mph 41 % 0 in
19:12 50.5 °F 27.7 °F 30.28 in Calm   -999.0 mph 41 % 0 in
19:28 49.5 °F 26.8 °F 30.28 in SSE 1.7 mph -999.0 mph 41 % 0 in
19:43 48.7 °F 25.4 °F 30.28 in Calm   -999.0 mph 40 % 0 in
19:58 47.7 °F 25.1 °F 30.28 in Calm   -999.0 mph 41 % 0 in
20:13 47.3 °F 25.4 °F 30.28 in Calm   -999.0 mph 42 % 0 in
20:28 47.1 °F 25.2 °F 30.28 in Calm   -999.0 mph 42 % 0 in
20:44 46.4 °F 25.1 °F 30.28 in Calm   -999.0 mph 43 % 0 in
20:59 45.7 °F 25.0 °F 30.28 in NE 2.2 mph -999.0 mph 44 % 0 in
21:14 45.5 °F 25.4 °F 30.28 in Calm   -999.0 mph 45 % 0 in
21:29 45.3 °F 24.7 °F 30.28 in Calm   -999.0 mph 44 % 0 in
21:44 45.9 °F 24.1 °F 30.29 in ESE 1.7 mph -999.0 mph 42 % 0 in
22:00 46.6 °F 24.1 °F 30.29 in East 1.1 mph -999.0 mph 41 % 0 in
22:15 46.6 °F 25.3 °F 30.29 in SE 1.7 mph -999.0 mph 43 % 0 in
22:30 46.2 °F 26.5 °F 30.29 in SE 1.7 mph -999.0 mph 46 % 0 in
22:45 45.1 °F 27.1 °F 30.29 in South 1.1 mph -999.0 mph 49 % 0 in
23:00 44.2 °F 27.2 °F 30.29 in South 1.7 mph -999.0 mph 51 % 0 in
23:16 42.8 °F 25.9 °F 30.29 in South 1.7 mph -999.0 mph 51 % 0 in
23:31 41.7 °F 28.0 °F 30.29 in SSE 1.1 mph -999.0 mph 58 % 0 in
23:46 41.2 °F 27.5 °F 30.29 in SSW 2.7 mph -999.0 mph 58 % 0 in
Big Bear CA Weather
Compliments of Weather Underground - 1.5 mb